Wind_Speed
22 23 24 24 23 22 22 20 20 18 17 17 15 12 13 17 20 22 19 19 18 18 17 18 16 14 16 14 9 10 9 8 9 5 20 3 15 21 14 15 10 11 6 2 12
23 23 23 23 25 25 24 23 22 21 20 20 19 17 16 16 19 20 24 21 21 20 19 17 16 18 18 16 14 13 10 9 8 9 9 8 20 20 18 13 14 11 7 3 9
26 25 25 24 24 24 25 25 24 24 23 22 21 20 20 20 18 19 21 23 24 22 21 18 16 15 16 14 17 15 13 11 10 6 5 4 3 7 19 24 14 11 9 7 9
30 28 26 25 25 25 24 24 25 25 25 24 23 23 21 22 21 20 20 22 25 26 24 20 19 18 14 14 14 14 18 14 10 9 11 10 7 11 20 22 16 13 10 6 9
31 30 28 27 26 26 25 25 24 24 24 24 24 24 23 23 22 23 24 21 23 26 26 24 21 21 21 18 15 14 16 14 11 13 8 7 10 15 12 21 25 17 13 10 8
30 31 30 29 28 27 26 25 26 26 25 23 23 23 23 22 24 26 24 23 23 24 24 28 29 24 22 19 19 15 13 11 12 16 14 5 8 7 14 8 23 16 16 11 9
29 29 30 30 31 29 28 27 26 26 27 26 24 25 25 21 20 24 25 25 24 23 26 28 27 27 24 21 18 16 13 9 10 13 13 10 11 8 6 10 16 12 12 10 12
24 25 27 28 31 31 30 30 28 26 25 27 27 26 27 25 23 23 22 24 26 28 28 25 27 24 26 23 18 14 13 10 10 12 20 8 9 10 10 7 9 6 6 9 11
26 25 23 27 29 30 30 29 30 29 27 26 27 27 27 26 27 27 24 23 24 29 30 27 23 25 24 23 20 17 18 16 14 20 19 11 7 9 10 7 4 2 8 6 9
25 23 20 22 28 29 30 30 30 29 30 28 28 29 28 29 29 28 28 25 26 28 28 26 26 23 20 21 20 21 22 22 21 22 25 20 15 14 13 11 3 11 11 9 6
26 26 25 22 22 27 28 29 29 29 29 29 29 29 28 27 29 29 30 30 29 27 26 25 25 22 22 21 26 23 25 25 23 23 23 25 20 16 17 13 12 9 5 6 4
26 24 26 27 25 23 26 29 29 28 28 29 30 30 30 29 29 29 28 31 30 31 29 26 22 22 25 27 27 26 24 26 26 28 26 23 24 21 19 16 11 9 6 6 4
25 25 25 24 25 24 24 24 26 28 28 28 29 30 30 30 31 31 30 31 32 33 32 27 26 28 28 28 28 25 24 27 32 32 27 25 24 18 19 17 14 10 6 6 6
28 25 25 23 22 21 25 27 24 25 27 28 27 28 30 30 32 32 32 33 33 34 33 30 32 30 29 26 27 27 25 31 33 32 31 30 26 20 19 16 15 10 3 4 6
21 16 15 14 15 17 21 24 24 21 22 25 26 28 28 28 31 32 32 34 35 35 34 34 35 32 32 29 26 26 32 37 38 33 32 32 29 25 20 11 13 11 5 1 11
17 13 14 15 15 11 14 18 22 20 20 20 23 25 28 28 28 31 32 34 34 35 35 35 36 37 34 34 30 30 30 36 39 37 34 32 29 23 16 14 15 14 9 5 11
17 14 13 14 12 7 11 18 22 24 26 25 25 24 26 26 29 31 32 32 33 33 33 37 38 38 36 36 36 34 33 32 36 37 34 34 30 24 21 20 21 16 16 16 14
17 14 12 14 10 4 12 20 22 24 28 23 21 21 22 21 24 27 28 30 31 31 31 33 34 35 37 38 37 37 37 36 34 34 38 39 36 29 25 25 23 21 20 24 21
19 16 13 14 13 2 8 15 17 19 20 17 18 16 16 20 22 24 25 26 27 29 28 28 31 34 36 36 37 37 39 38 36 36 37 42 43 36 33 31 29 25 25 19 17
18 15 15 13 10 1 5 7 14 16 17 17 17 15 13 18 22 25 27 27 28 28 26 23 23 27 31 34 35 39 39 39 40 38 39 37 40 44 41 43 37 30 29 26 20
17 16 15 11 7 3 4 7 12 15 14 14 14 19 19 16 17 20 26 27 25 23 23 21 22 24 27 31 34 34 39 42 41 40 41 39 39 41 42 39 41 38 33 32 27
17 15 11 9 8 5 1 7 14 19 20 20 19 20 21 23 23 23 20 20 19 23 25 24 25 26 31 32 33 34 35 36 38 41 43 41 42 46 41 39 36 34 35 37 32
16 15 12 11 9 8 9 8 9 11 14 17 20 21 21 24 27 28 24 24 24 24 25 25 26 30 32 34 34 36 36 35 36 35 38 40 44 42 45 42 38 36 34 37 38
15 14 12 12 10 9 9 10 12 12 14 17 17 18 18 20 22 24 23 23 22 23 24 26 27 29 32 35 37 39 38 38 38 38 38 43 46 42 44 43 42 41 39 38 37
15 15 14 14 12 11 11 12 11 13 14 15 15 17 18 20 22 23 23 24 25 24 25 28 27 28 31 33 37 39 41 42 41 41 39 43 46 46 44 43 44 45 44 42 41
12 12 13 21 19 16 14 10 10 9 10 11 14 16 16 18 21 24 27 29 29 29 27 28 28 29 30 32 34 37 41 44 45 45 42 42 44 49 48 44 47 49 48 46 46
8 4 6 13 13 15 15 14 16 14 8 6 5 7 11 14 16 20 22 24 26 27 27 25 29 28 27 27 31 35 37 40 45 47 47 48 46 48 49 49 46 52 53 51 47
Wind_Direction
275 271 267 261 253 249 246 241 243 239 237 239 234 226 217 214 214 214 212 215 219 222 225 218 220 212 218 225 235 255 269 291 322 339 335 41 175 150 152 149 146 129 100 95 100
279 271 265 262 258 252 246 242 237 236 233 234 233 228 223 219 216 215 217 216 220 223 229 229 222 220 225 226 236 245 257 277 294 317 117 210 202 148 157 147 148 138 139 151 99
283 278 270 262 256 252 249 243 239 232 232 229 231 227 224 224 219 215 216 217 220 219 223 231 231 226 231 237 240 243 250 259 276 283 263 60 128 185 161 168 162 146 144 152 116
276 275 273 266 259 252 246 245 241 236 230 230 228 229 224 226 223 222 218 214 218 219 222 224 226 222 218 221 232 231 237 242 258 271 228 158 175 185 148 156 159 132 136 162 135
280 273 270 267 262 256 250 243 239 237 234 227 225 228 226 225 222 223 222 215 217 219 221 224 223 222 216 214 223 223 231 235 238 234 143 160 219 216 191 159 150 147 148 158 151
285 277 269 265 263 259 256 249 244 236 235 231 224 222 226 224 225 221 224 219 217 219 218 219 222 223 226 223 222 225 234 235 233 239 233 164 120 188 202 154 120 156 138 160 168
288 276 270 264 260 258 256 255 250 245 236 233 230 224 223 223 230 228 222 222 222 219 221 218 221 223 227 218 227 238 246 247 244 249 200 166 132 133 137 120 130 133 136 163 175
305 294 273 266 261 255 253 252 251 248 243 236 232 228 227 225 226 231 223 223 222 222 224 221 223 223 224 228 220 227 234 239 211 218 188 170 131 179 154 121 112 122 123 171 185
301 296 289 267 261 258 251 248 247 246 243 239 235 231 227 226 226 233 226 225 224 225 227 224 222 221 224 220 215 211 228 223 204 204 188 191 161 183 141 144 216 143 166 167 184
298 296 294 278 262 254 252 247 242 241 240 238 235 236 233 230 227 227 234 225 226 229 228 226 224 224 220 217 208 207 217 222 219 216 199 206 184 160 168 168 198 174 136 133 163
291 285 282 278 277 260 246 245 242 239 238 237 234 232 230 230 227 226 227 230 228 229 226 223 223 222 217 211 209 203 211 216 224 221 219 215 208 196 178 182 183 183 124 146 126
306 294 281 274 264 264 257 241 239 237 234 234 230 229 228 228 226 227 226 228 229 231 229 223 220 221 217 214 212 203 204 210 216 226 224 219 222 217 197 191 196 199 225 202 232
307 296 285 273 266 250 247 250 242 233 233 232 231 229 225 225 227 224 225 223 226 229 230 227 223 220 220 216 214 205 202 204 209 224 231 230 224 226 227 197 184 183 205 243 238
312 291 284 280 267 250 238 239 239 235 232 229 229 230 227 225 226 224 223 222 224 226 228 225 227 225 226 221 219 208 194 202 215 222 227 231 231 219 219 206 178 174 192 225 181
324 317 312 308 288 261 241 233 229 223 225 224 224 224 225 222 225 222 223 221 222 223 225 228 228 227 227 224 218 214 201 199 211 222 227 231 233 234 231 219 197 189 124 209 164
337 323 320 323 320 279 235 227 212 198 199 210 213 213 219 217 219 219 219 220 220 221 221 224 227 226 225 229 223 225 219 209 212 220 225 231 233 231 233 217 198 207 171 203 194
344 327 329 338 328 265 218 198 189 187 190 189 195 200 208 211 215 218 218 221 221 221 221 223 226 229 226 229 228 225 227 221 217 221 226 228 233 226 224 211 206 212 214 217 205
349 348 344 346 340 245 199 190 188 189 184 180 178 192 205 203 210 215 220 221 220 221 222 224 225 228 228 227 231 229 229 229 225 224 222 224 230 228 223 228 219 212 211 205 221
3 352 356 8 14 277 201 194 200 204 187 174 183 190 200 205 202 205 211 207 215 220 219 220 224 227 229 226 225 225 227 228 228 228 225 221 226 229 232 228 228 218 222 223 206
9 19 10 17 32 59 187 208 218 222 216 197 189 201 218 222 218 212 213 210 210 213 214 213 218 229 230 231 227 224 230 227 227 225 229 222 223 228 228 229 227 225 223 219 209
360 7 11 25 28 62 202 214 219 224 228 236 229 217 223 239 248 236 226 227 224 223 223 216 218 220 229 231 232 229 230 234 235 234 232 231 222 225 227 227 231 227 224 224 206
345 349 353 352 344 24 156 218 227 235 244 249 249 250 248 251 249 250 241 230 225 226 226 222 217 215 221 227 230 233 232 233 236 235 238 237 232 229 224 227 226 226 223 224 212
339 338 333 339 329 323 308 280 253 244 247 248 248 246 240 242 243 248 241 228 219 219 217 215 213 209 217 230 233 233 235 236 234 232 235 239 240 233 233 223 221 220 223 226 217
341 336 338 330 323 319 305 294 284 273 261 247 246 251 248 246 243 244 243 237 232 228 240 234 223 218 222 226 233 236 236 236 237 236 231 237 243 238 238 231 221 216 220 226 221
353 2 7 353 346 331 327 324 305 287 276 269 263 258 252 249 251 250 249 251 249 247 245 241 235 230 231 234 235 237 238 239 238 239 238 237 241 246 242 240 224 222 219 221 226
5 57 59 47 41 30 20 1 348 330 300 275 257 252 246 243 235 239 245 246 250 253 252 252 251 244 244 240 237 236 236 238 240 241 239 240 240 241 244 237 231 220 223 219 225
350 352 24 46 49 47 37 26 24 14 342 307 283 261 255 244 238 240 244 249 249 249 245 241 246 243 238 238 242 242 239 236 237 242 241 239 240 243 240 239 230 219 217 222 226
Height
5846 5845 5845 5844 5844 5844 5845 5846 5847 5848 5849 5850 5851 5853 5854 5855 5856 5858 5860 5862 5864 5865 5867 5869 5872 5875 5876 5879 5881 5881 5882 5881 5880 5880 5877 5876 5878 5879 5886 5888 5890 5893 5895 5897 5895
5842 5840 5838 5838 5839 5839 5839 5840 5842 5843 5845 5846 5847 5849 5851 5851 5853 5855 5857 5859 5860 5863 5865 5867 5870 5873 5875 5878 5880 5880 5881 5880 5880 5883 5883 5879 5877 5880 5884 5887 5891 5894 5896 5896 5897
5837 5835 5834 5833 5832 5832 5833 5834 5836 5838 5839 5842 5843 5844 5846 5847 5850 5851 5853 5855 5857 5860 5862 5866 5868 5871 5874 5878 5879 5880 5879 5880 5879 5883 5883 5880 5881 5881 5879 5888 5892 5896 5896 5896 5898
5829 5828 5828 5828 5827 5827 5827 5828 5830 5832 5834 5836 5838 5839 5841 5843 5847 5847 5849 5851 5853 5856 5859 5862 5865 5868 5871 5874 5876 5879 5877 5879 5880 5880 5880 5882 5883 5884 5887 5889 5891 5894 5899 5898 5897
5822 5821 5821 5821 5821 5821 5822 5822 5824 5826 5828 5830 5833 5834 5836 5839 5841 5842 5844 5847 5849 5851 5856 5859 5861 5863 5866 5870 5871 5875 5877 5879 5881 5881 5880 5881 5883 5883 5886 5890 5892 5893 5897 5898 5898
5814 5813 5814 5814 5814 5815 5817 5818 5818 5820 5823 5825 5827 5829 5831 5834 5835 5837 5840 5843 5846 5848 5851 5854 5855 5858 5863 5868 5869 5871 5875 5880 5881 5881 5882 5882 5883 5885 5887 5888 5889 5893 5897 5899 5899
5805 5805 5805 5806 5806 5808 5810 5812 5813 5815 5817 5819 5822 5824 5826 5830 5832 5833 5836 5839 5841 5844 5844 5849 5852 5855 5859 5863 5868 5869 5873 5878 5880 5879 5880 5883 5884 5885 5889 5890 5893 5898 5897 5899 5898
5799 5797 5797 5798 5798 5799 5802 5804 5807 5809 5811 5813 5816 5819 5821 5825 5827 5828 5832 5834 5837 5837 5840 5845 5849 5854 5855 5860 5866 5868 5870 5875 5878 5878 5880 5882 5884 5886 5888 5892 5894 5898 5899 5900 5900
5793 5791 5789 5789 5789 5792 5794 5796 5799 5802 5804 5807 5811 5813 5816 5819 5822 5823 5827 5830 5832 5833 5836 5841 5846 5849 5853 5857 5862 5865 5867 5870 5874 5874 5877 5880 5884 5886 5888 5892 5893 5896 5899 5901 5901
5787 5784 5783 5782 5781 5783 5786 5788 5790 5794 5797 5801 5804 5808 5810 5812 5815 5819 5821 5825 5827 5828 5833 5838 5841 5846 5850 5854 5858 5860 5863 5865 5869 5871 5873 5874 5878 5883 5887 5889 5892 5893 5896 5899 5901
5780 5777 5775 5775 5774 5775 5777 5781 5785 5788 5790 5793 5798 5800 5803 5806 5809 5813 5816 5819 5823 5825 5829 5832 5837 5842 5845 5849 5851 5854 5859 5862 5864 5866 5871 5874 5877 5879 5884 5886 5890 5890 5893 5896 5899
5774 5770 5768 5766 5766 5767 5769 5771 5776 5780 5783 5786 5790 5792 5796 5800 5803 5807 5811 5815 5818 5821 5824 5829 5834 5836 5839 5842 5845 5850 5854 5858 5859 5860 5865 5871 5873 5877 5882 5885 5886 5889 5890 5893 5897
5766 5762 5759 5757 5756 5759 5761 5764 5767 5771 5776 5778 5782 5785 5789 5794 5796 5800 5805 5808 5812 5815 5820 5826 5829 5829 5833 5838 5842 5848 5851 5852 5853 5854 5861 5865 5870 5877 5879 5882 5885 5886 5889 5891 5893
5757 5752 5750 5749 5749 5749 5752 5755 5759 5763 5767 5772 5775 5777 5782 5786 5789 5793 5797 5803 5806 5809 5814 5820 5821 5826 5829 5834 5838 5844 5848 5848 5848 5853 5858 5860 5865 5873 5876 5880 5882 5885 5886 5887 5891
5750 5748 5746 5744 5742 5742 5744 5747 5751 5755 5760 5765 5767 5770 5775 5780 5782 5786 5789 5794 5798 5803 5810 5813 5816 5821 5824 5829 5833 5839 5842 5844 5845 5849 5853 5856 5862 5866 5874 5879 5881 5882 5884 5886 5888
5749 5747 5744 5741 5738 5737 5739 5741 5745 5750 5753 5757 5760 5763 5767 5771 5774 5778 5782 5787 5792 5797 5802 5805 5809 5813 5820 5822 5830 5832 5837 5841 5842 5845 5850 5853 5858 5863 5871 5876 5879 5881 5881 5884 5886
5747 5744 5742 5738 5735 5734 5736 5738 5742 5744 5748 5751 5754 5757 5760 5764 5768 5771 5778 5783 5788 5793 5796 5800 5803 5808 5813 5817 5822 5827 5830 5835 5840 5842 5847 5848 5854 5860 5864 5867 5869 5875 5878 5881 5883
5746 5743 5740 5737 5735 5734 5736 5738 5741 5743 5746 5748 5751 5755 5758 5761 5764 5767 5772 5778 5782 5786 5791 5794 5799 5802 5805 5810 5814 5820 5824 5829 5833 5838 5841 5843 5847 5853 5860 5861 5866 5871 5872 5871 5880
5746 5744 5740 5737 5736 5737 5739 5740 5741 5744 5746 5748 5751 5754 5756 5759 5762 5765 5768 5772 5776 5781 5786 5789 5791 5793 5797 5802 5806 5809 5814 5820 5826 5832 5835 5839 5842 5849 5852 5856 5860 5865 5868 5874 5876
5748 5745 5741 5737 5737 5739 5741 5742 5742 5744 5746 5749 5751 5752 5754 5755 5759 5763 5764 5768 5772 5776 5780 5784 5787 5787 5790 5794 5798 5801 5807 5812 5816 5823 5825 5833 5836 5837 5842 5847 5852 5859 5863 5867 5872
5749 5745 5743 5739 5739 5740 5741 5742 5742 5743 5745 5746 5748 5750 5752 5754 5755 5758 5761 5765 5770 5773 5776 5780 5783 5785 5784 5786 5790 5796 5798 5802 5809 5813 5816 5822 5826 5830 5833 5838 5844 5852 5857 5860 5866
5749 5747 5745 5742 5740 5739 5740 5740 5741 5741 5742 5743 5745 5747 5748 5749 5750 5752 5755 5758 5762 5766 5770 5773 5776 5778 5778 5779 5784 5786 5790 5794 5798 5804 5806 5811 5815 5820 5829 5834 5838 5844 5851 5855 5859
5749 5746 5743 5741 5739 5738 5737 5738 5738 5738 5738 5738 5740 5741 5742 5743 5745 5745 5748 5751 5755 5758 5761 5764 5767 5770 5772 5775 5778 5780 5782 5786 5791 5796 5799 5802 5806 5814 5819 5827 5832 5837 5843 5847 5853
5748 5745 5742 5739 5738 5736 5735 5734 5734 5733 5733 5734 5735 5735 5737 5738 5739 5740 5742 5745 5748 5751 5752 5755 5759 5764 5767 5768 5769 5772 5776 5779 5783 5787 5792 5794 5797 5803 5811 5819 5825 5830 5835 5840 5845
5748 5744 5741 5738 5735 5734 5732 5731 5730 5730 5729 5729 5729 5730 5732 5733 5734 5735 5738 5739 5741 5743 5746 5748 5753 5757 5758 5759 5761 5764 5767 5771 5775 5779 5786 5788 5791 5794 5802 5810 5818 5822 5827 5831 5836
5748 5746 5742 5739 5736 5733 5731 5730 5728 5726 5726 5725 5725 5724 5725 5726 5727 5728 5729 5732 5733 5736 5739 5741 5744 5748 5749 5750 5752 5754 5757 5761 5767 5772 5778 5780 5783 5784 5789 5799 5807 5814 5818 5822 5826
5748 5746 5743 5741 5738 5736 5733 5731 5728 5726 5724 5723 5722 5721 5721 5722 5723 5723 5724 5724 5726 5729 5732 5735 5736 5739 5741 5742 5743 5747 5749 5753 5758 5762 5768 5771 5773 5773 5778 5786 5796 5803 5808 5813 5816